Location: Kergonan
(48.2337°N, 4.5518°W)
Time: 22:38:30
(UTC+00:00)

Genesis I - Pass Details

Date: 18 January 2020
Orbit: 495 x 528 km, 64.5° (Epoch: 16 February)

Event Time Altitude Azimuth Distance (km) Brightness Sun altitude
Exits shadow 07:24:32 - 320° (NW) 2,097 5.7 -6.4°
Reaches altitude 10° 07:25:25 10° 320° (NW) 1,741 5.3 -6.3°
Maximum altitude 07:29:18 82° 234° (SW) 519 3.2 -5.7°
Drops below altitude 10° 07:33:08 10° 146° (SE) 1,709 6.9 -5.1°
Sets 07:35:16 0° 145° (SE) 2,585 8.0 -4.8°
